Location: Anumalkud?ru
(16.4847°N, 80.6636°E)
Time: 11:52:28
(UTC+00:00)

Cosmos 1655 Rocket - Pass Details

Date: 11 April 2026
Orbit: 969 x 1006 km, 83.0° (Epoch: 21 May)

Event Time Altitude Azimuth Distance (km) Brightness Sun altitude
Rises 22:49:00 0° 360° (N) 3,662 7.2 -23.1°
Reaches altitude 10° 22:51:32 10° 3° (N) 2,711 6.5 -22.5°
Maximum altitude 22:57:42 68° 85° (E) 1,036 4.3 -21.1°
Drops below altitude 10° 23:03:50 10° 168° (SSE) 2,702 6.3 -19.7°
Sets 23:06:21 0° 171° (S) 3,649 6.9 -19.1°
